Location: Bogis-Bossey
(46.3500°N, 6.1667°E)
Time: 17:57:29
(UTC+00:00)

Cosmos 1805 Rocket - Pass Details

Date: 17 August 2022
Orbit: 606 x 628 km, 82.5° (Epoch: 30 September)

Event Time Altitude Azimuth Distance (km) Brightness Sun altitude
Exits shadow 21:17:32 71° 176° (S) 650 3.4 -22.5°
Maximum altitude 21:18:00 86° 97° (E) 619 3.4 -22.5°
Drops below altitude 10° 21:22:24 10° 10° (N) 1,983 6.7 -23.0°
Sets 21:24:39 0° 10° (N) 2,897 7.6 -23.2°
